Weather History for Red Oak, IA

Change the Weather History Date:

Thursday, May 8, 2014

  Actual Average Record
Temperature  
Mean Temperature 68 °F -  
Max Temperature 82 °F 74 °F 92 °F (1963)
Min Temperature 55 °F 48 °F 29 °F (1976)
Cooling Degree Days 4    
Growing Degree Days 18 (Base 50)    
Moisture  
Dew Point 60 °F    
Average Humidity 68    
Maximum Humidity 88    
Minimum Humidity 41    
Precipitation  
Precipitation 0.00 in - - ()
Sea Level Pressure  
Sea Level Pressure 29.66 in    
Wind  
Wind Speed 14 mph (SSW)    
Max Wind Speed 34 mph    
Max Gust Speed 45 mph    
Visibility 10 miles    
Events Rain    
Averages and records for this station are not official NWS values.
T = Trace of Precipitation, MM = Missing Value Source: NWS Daily Summary

Daily Weather History Graph

Daily Weather History Graph

Search for Another Location

Airport:

Trip Planner

Search our weather history database for the weather conditions in past years. The results will help you decide how hot, cold, wet, or windy it might be!

Date:

Astronomy

May. 08, 2014 Rise Set
Actual Time 6:10 AM CDT 8:25 PM CDT
Civil Twilight 5:39 AM CDT 8:55 PM CDT
Nautical Twilight 5:02 AM CDT 9:33 PM CDT
Astronomical Twilight 4:21 AM CDT 10:15 PM CDT
Moon 2:23 PM CDT (5/8) 2:45 AM CDT (5/8)
Length of Visible Light 15h 15m
Length of Day
14h 14m
Waxing Gibbous, 65% of the Moon is Illuminated
May 8
Waxing Gibbous
May 14
Full
May 21
Last Quarter
May 28
New
Jun 5
First Quarter

Hourly Weather History & Observations

Time (CDT) Temp. Heat Index Dew Point Humidity Pressure Visibility Wind Dir Wind Speed Gust Speed Precip Events Conditions
12:15 AM 77.0 °F - 64.4 °F 65% 29.66 in 10.0 mi SSW 19.6 mph 25.3 mph N/A Rain Light Rain
12:35 AM 77.0 °F - 64.4 °F 65% 29.64 in 10.0 mi South 20.7 mph 28.8 mph N/A Rain Heavy Rain
12:55 AM 77.0 °F - 64.4 °F 65% 29.64 in 10.0 mi SSW 18.4 mph 24.2 mph N/A Rain Light Rain
1:15 AM 77.0 °F - 64.4 °F 65% 29.61 in 10.0 mi South 6.9 mph 12.7 mph N/A Rain Rain
1:35 AM 75.2 °F - 64.4 °F 69% 29.62 in 10.0 mi SSE 9.2 mph - N/A Rain Light Rain
1:55 AM 75.2 °F - 64.4 °F 69% 29.62 in 10.0 mi South 9.2 mph - N/A Rain Light Rain
2:15 AM 73.4 °F - 62.6 °F 69% 29.64 in 10.0 mi West 4.6 mph 11.5 mph N/A Rain Light Rain
2:55 AM 68.0 °F - 60.8 °F 78% 29.65 in 10.0 mi NE 5.8 mph - N/A Rain Light Rain
3:15 AM 68.0 °F - 60.8 °F 78% 29.67 in 10.0 mi SE 6.9 mph - N/A Rain Rain
3:35 AM 68.0 °F - 60.8 °F 78% 29.67 in 10.0 mi South 6.9 mph - N/A   Clear
3:55 AM 69.8 °F - 64.4 °F 83% 29.68 in 10.0 mi SSW 15.0 mph - N/A   Scattered Clouds
4:15 AM 71.6 °F - 64.4 °F 78% 29.68 in 10.0 mi SSW 11.5 mph - N/A   Scattered Clouds
4:35 AM 71.6 °F - 64.4 °F 78% 29.67 in 10.0 mi South 9.2 mph - N/A   Partly Cloudy
4:55 AM 69.8 °F - 62.6 °F 78% 29.66 in 10.0 mi South 8.1 mph - N/A   Clear
5:15 AM 69.8 °F - 62.6 °F 78% 29.67 in 10.0 mi South 6.9 mph - N/A   Clear
5:35 AM 69.8 °F - 62.6 °F 78% 29.66 in 10.0 mi South 6.9 mph - N/A   Clear
5:55 AM 66.2 °F - 62.6 °F 88% 29.66 in 10.0 mi South 4.6 mph - N/A   Clear
6:15 AM 66.2 °F - 62.6 °F 88% 29.68 in 10.0 mi South 4.6 mph - N/A   Clear
6:35 AM 66.2 °F - 62.6 °F 88% 29.68 in 10.0 mi Calm Calm - N/A   Clear
6:55 AM 66.2 °F - 62.6 °F 88% 29.68 in 10.0 mi South 5.8 mph - N/A   Clear
7:15 AM 68.0 °F - 62.6 °F 83% 29.67 in 10.0 mi SSE 9.2 mph - N/A   Mostly Cloudy
7:35 AM 69.8 °F - 62.6 °F 78% 29.68 in 10.0 mi SSE 11.5 mph - N/A   Overcast
7:55 AM 69.8 °F - 62.6 °F 78% 29.68 in 10.0 mi SSE 10.4 mph 16.1 mph N/A   Scattered Clouds
8:15 AM 71.6 °F - 62.6 °F 73% 29.68 in 10.0 mi South 11.5 mph - N/A   Partly Cloudy
8:35 AM 71.6 °F - 62.6 °F 73% 29.68 in 10.0 mi South 15.0 mph - N/A   Clear
8:55 AM 73.4 °F - 62.6 °F 69% 29.68 in 10.0 mi South 18.4 mph 24.2 mph N/A   Clear
9:15 AM 73.4 °F - 62.6 °F 69% 29.67 in 10.0 mi South 15.0 mph 26.5 mph N/A   Clear
9:35 AM 75.2 °F - 62.6 °F 65% 29.67 in 10.0 mi South 21.9 mph 28.8 mph N/A   Clear
9:55 AM 75.2 °F - 62.6 °F 65% 29.67 in 10.0 mi South 19.6 mph 27.6 mph N/A   Partly Cloudy
10:15 AM 75.2 °F - 62.6 °F 65% 29.67 in 10.0 mi South 19.6 mph - N/A   Mostly Cloudy
10:35 AM 75.2 °F - 62.6 °F 65% 29.66 in 10.0 mi South 16.1 mph 26.5 mph N/A   Mostly Cloudy
10:55 AM 75.2 °F - 62.6 °F 65% 29.65 in 10.0 mi South 18.4 mph 26.5 mph N/A   Mostly Cloudy
11:15 AM 73.4 °F - 62.6 °F 69% 29.67 in 9.0 mi South 26.5 mph 33.4 mph N/A   Overcast
11:35 AM 69.8 °F - 64.4 °F 83% 29.69 in 5.0 mi South 18.4 mph 28.8 mph N/A   Haze
11:55 AM 69.8 °F - 64.4 °F 83% 29.69 in 10.0 mi South 13.8 mph - N/A   Overcast
12:15 PM 71.6 °F - 66.2 °F 83% 29.67 in 10.0 mi South 12.7 mph - N/A   Mostly Cloudy
12:35 PM 73.4 °F - 64.4 °F 73% 29.66 in 10.0 mi South 17.3 mph 24.2 mph N/A   Partly Cloudy
12:55 PM 73.4 °F - 64.4 °F 73% 29.65 in 10.0 mi South 25.3 mph - N/A   Scattered Clouds
1:15 PM 73.4 °F - 64.4 °F 73% 29.64 in 10.0 mi South 20.7 mph 27.6 mph N/A   Scattered Clouds
1:35 PM 73.4 °F - 64.4 °F 73% 29.64 in 10.0 mi South 16.1 mph 26.5 mph N/A   Partly Cloudy
1:55 PM 77.0 °F - 66.2 °F 69% 29.64 in 10.0 mi South 20.7 mph - N/A   Partly Cloudy
2:15 PM 75.2 °F - 64.4 °F 69% 29.64 in 10.0 mi South 17.3 mph 26.5 mph N/A   Mostly Cloudy
2:35 PM 77.0 °F - 62.6 °F 61% 29.63 in 10.0 mi South 21.9 mph 28.8 mph N/A   Overcast
2:55 PM 78.8 °F - 62.6 °F 57% 29.61 in 10.0 mi South 19.6 mph 31.1 mph N/A   Mostly Cloudy
3:15 PM 78.8 °F - 62.6 °F 57% 29.60 in 10.0 mi South 17.3 mph 26.5 mph N/A   Partly Cloudy
3:35 PM 80.6 °F 81.5 °F 60.8 °F 51% 29.60 in 10.0 mi South 19.6 mph 28.8 mph N/A   Partly Cloudy
3:55 PM 78.8 °F - 60.8 °F 54% 29.59 in 10.0 mi South 20.7 mph 31.1 mph N/A   Partly Cloudy
4:15 PM 80.6 °F 81.1 °F 59.0 °F 48% 29.59 in 10.0 mi South 28.8 mph - N/A   Scattered Clouds
4:35 PM 82.4 °F 82.5 °F 59.0 °F 45% 29.59 in 10.0 mi South 18.4 mph 32.2 mph N/A   Partly Cloudy
4:55 PM 80.6 °F 81.1 °F 59.0 °F 48% 29.59 in 10.0 mi South 20.7 mph 28.8 mph N/A   Scattered Clouds
5:15 PM 80.6 °F 80.8 °F 57.2 °F 45% 29.61 in 10.0 mi South 34.5 mph 44.9 mph N/A Rain Light Rain
5:35 PM 75.2 °F - 53.6 °F 47% 29.62 in 10.0 mi South 21.9 mph 33.4 mph N/A   Mostly Cloudy
5:55 PM 73.4 °F - 57.2 °F 57% 29.62 in 10.0 mi South 18.4 mph 27.6 mph N/A   Scattered Clouds
6:15 PM 75.2 °F - 60.8 °F 61% 29.61 in 10.0 mi South 16.1 mph 25.3 mph N/A   Scattered Clouds
6:35 PM 75.2 °F - 60.8 °F 61% 29.60 in 10.0 mi South 17.3 mph - N/A   Mostly Cloudy
6:55 PM 77.0 °F - 57.2 °F 50% 29.60 in 10.0 mi SSW 13.8 mph 20.7 mph N/A   Overcast
7:15 PM 77.0 °F - 51.8 °F 41% 29.61 in 10.0 mi West 17.3 mph - N/A   Mostly Cloudy
7:35 PM 71.6 °F - 53.6 °F 53% 29.64 in 10.0 mi WNW 19.6 mph 25.3 mph N/A   Partly Cloudy
7:55 PM 68.0 °F - 51.8 °F 56% 29.66 in 10.0 mi WNW 18.4 mph 28.8 mph N/A   Partly Cloudy
8:15 PM 66.2 °F - 50.0 °F 56% 29.69 in 10.0 mi West 20.7 mph 27.6 mph N/A   Clear
8:35 PM 64.4 °F - 50.0 °F 59% 29.71 in 10.0 mi West 18.4 mph 24.2 mph N/A   Clear
8:55 PM 62.6 °F - 50.0 °F 63% 29.72 in 10.0 mi West 13.8 mph - N/A   Scattered Clouds
9:15 PM 60.8 °F - 48.2 °F 63% 29.73 in 10.0 mi West 16.1 mph - N/A   Clear
9:35 PM 60.8 °F - 48.2 °F 63% 29.74 in 10.0 mi West 17.3 mph 25.3 mph N/A   Clear
10:15 PM 59.0 °F - 46.4 °F 63% 29.75 in 10.0 mi WNW 15.0 mph 23.0 mph N/A   Clear
10:35 PM 57.2 °F - 46.4 °F 67% 29.75 in 10.0 mi WNW 12.7 mph - N/A   Clear
10:55 PM 57.2 °F - 46.4 °F 67% 29.77 in 10.0 mi West 11.5 mph - N/A   Clear
11:15 PM 55.4 °F - 46.4 °F 72% 29.78 in 10.0 mi NW 8.1 mph - N/A   Partly Cloudy
11:35 PM 55.4 °F - 46.4 °F 72% 29.78 in 10.0 mi NW 10.4 mph - N/A   Partly Cloudy
11:55 PM 55.4 °F - 44.6 °F 67% 29.78 in 10.0 mi NW 8.1 mph 13.8 mph N/A   Partly Cloudy